Regional Weather Roundup
Issued by NWS Midland/Odessa, TX

Home | Current Version | Previous Version | Text Only | Print | Product List | Glossary On
Versions: 1 2 3 4 5 6 7 8 9 10 11 12 13 14 15 16 17 18 19 20 21 22 23 24 25 26 27 28 29 30 31 32 33 34 35 36 37 38 39 40 41 42 43 44 45 46 47 48 49 50
000
ASUS44 KMAF 261910
RWRMAF
MIDLAND AREA WEATHER ROUNDUP
NATIONAL WEATHER SERVICE MIDLAND TX
200 PM CDT THU APR 26 2018

...IN SOUTHWEST TEXAS AND SOUTHEAST NEW MEXICO...

CITY           SKY/WX    TMP DP  RH WIND       PRES   REMARKS
ALPINE         SUNNY     83  35  18 SW17G26   30.08F
ANDREWS        FAIR      75  38  26 S9        29.98F
ARTESIA        MOSUNNY   79  36  21 SE7       29.96F
BIG SPRING     SUNNY     73  35  24 S12G17    30.00F
CARLSBAD       MOSUNNY   78  42  27 E5        29.94F
DRYDEN           N/A     77  48  35 VRB5G18   29.95F
FORT STOCKTON  SUNNY     83  36  18 VRB5      29.94F
GUAD PASS      PTSUNNY   74  33  22 SW21      30.09F
HOBBS          SUNNY     79  34  19 SW10G18   29.97F
LAMESA         MOCLDY    73  32  21 S13G24    29.98F
MARFA          SUNNY     78  39  24 SW10G21   30.07F
MIDLAND AIRPK    N/A     77  39  25 S10G18    29.97F
MIDLAND INTL   SUNNY     77  42  28 SW13      29.97F
ODESSA         CLOUDY    76  41  28 S12G21    29.98F
PECOS          SUNNY     77  40  26 CALM      29.94F
PRESIDIO       FAIR      79  43  27 SE3       30.00F
SEMINOLE       SUNNY     76  37  24 SW13      29.99F
SNYDER         SUNNY     71  35  27 S12G18    29.99F
WINK           SUNNY     78  40  25 MISG      29.94F
$$
...OTHER STATIONS IN TEXAS...

CITY           SKY/WX    TMP DP  RH WIND       PRES   REMARKS
ABILENE        SUNNY     71  42  35 S6        29.99F
AMARILLO       SUNNY     67  33  28 N20G33    30.03S
AUSTIN         SUNNY     71  48  43 NE5       30.01F
BROWNSVILLE    CLOUDY    78  65  63 NE13      30.00F
CORPUS CHRISTI MOSUNNY   74  51  44 E6        30.01F
DALLAS FTW     MOSUNNY   68  44  42 VRB3      29.99F
DEL RIO        SUNNY     76  52  43 S8        29.97F
EL PASO        PTSUNNY   79  35  20 W5        30.02F
HOUSTON INT    FAIR      73  48  41 N9G17     29.99F
LUBBOCK        MOSUNNY   75  28  17 SW8G23    29.98F
SAN ANGELO     SUNNY     75  38  26 VRB5G17   29.98F
SAN ANTONIO    MOSUNNY   71  43  36 VRB5      30.02F
WACO           SUNNY     73  43  33 CALM      30.01F
WICHITA FALLS  CLOUDY    66  42  41 VRB5      30.01S
$$
...OTHER LOCATIONS IN NEW MEXICO...

CITY           SKY/WX    TMP DP  RH WIND       PRES   REMARKS
ALAMOGORDO     MOSUNNY   75  32  20 NW8       30.05F
ALBUQUERQUE    MOSUNNY   77  15   9 NW20G30   30.06F
CANNON AFB     MOSUNNY   68  28  22 N30G41    30.08R
CLOVIS         SUNNY     69  29  22 N33G39    30.07R
HOLLOMAN AFB   MOSUNNY   82  35  19 W5        30.06F
ROSWELL        SUNNY     84  34  16 NE12G20   29.94F
RUIDOSO        SUNNY     68  19  15 NW14G30   30.18F
SANTA FE       SUNNY     72   7   8 N10       30.10F
TRUTH OR CONSE MOSUNNY   82  23  11 E12G24    30.04F
TUCUMCARI      SUNNY     72  27  18 N23G37    30.07S
$$




USA.gov is the U.S. government's official web portal to all federal, state and local government web resources and services.